sat.trackr.live / text

‹ back to catalog

STARLINK-32943

NORAD 63023 · 2025-032U

PAYLOAD ACTIVE UNKNOWN

§ Identity

Operator
Country
US
Launch date
2025-02-15
Launch site
AFETR
Launch vehicle
Mass (kg)
RCS (m²)

Purposes: comms

External: N2YO · Heavens-Above · Gunter

§ Orbital elements

Epoch: 2026-05-24T17:53:23.161344Z

Period
94.27 min
Inclination
42.9993°
Eccentricity
0.0001178
Mean motion
15.27606940 rev/d
Perigee alt
482.2 km
Apogee alt
483.8 km
Semi-major
6,861.1 km
B*
8.5392e-4
RAAN
266.3693°
Arg perigee
288.9983°
Mean anomaly
71.0741°
Rev number
7,225

§ Raw data

STARLINK-329431 63023U 25032U   26144.74540696  .00023330  00000+0  85392-3 0  99942 63023  42.9993 266.3693 0001178 288.9983  71.0741 15.27606940 72257

JSON: /api/v1/satellites/63023 · /tle

For live sub-satellite position, see the globe view (requires WebGL).

§ Visibility from observer

Set your observer location to see the next 7 days of passes ≥ 10°. The values pass through the URL so the page stays shareable.

No JS? Fill the form by hand. The geolocation button needs JavaScript.